GFSNE_850_spd_273.txt.gz
Wind_Speed
9 9 8 8 9 8 6 5 8 8 9 5 8 7 6 4 2 1 3 1 5 7 7 8 11 13 14 14 15 18 19 21 22 23 22 25 24 29
5 8 7 5 4 10 8 8 7 9 10 15 10 9 8 9 12 12 10 9 6 12 11 12 9 6 8 11 14 15 16 17 18 21 21 19 17 15
5 6 7 7 5 3 5 5 4 6 9 11 10 8 5 5 6 11 6 6 10 9 9 11 10 7 8 10 12 14 16 16 16 16 16 16 14 18
6 9 7 7 8 6 4 4 4 5 7 10 7 5 8 6 7 4 7 8 4 7 7 5 4 3 6 7 9 11 12 13 14 13 13 14 12 14
3 5 4 7 9 5 7 10 10 10 9 10 12 10 6 9 4 3 4 5 4 5 10 11 6 7 6 9 9 9 10 12 13 13 13 14 16 15
6 5 6 6 9 10 8 7 9 10 10 10 8 9 7 7 7 6 8 7 6 6 3 1 6 7 9 10 9 6 6 8 10 11 14 16 18 20
9 8 9 8 8 9 8 11 10 9 9 10 10 9 10 11 9 7 8 11 9 6 1 2 2 7 8 9 11 8 7 8 10 13 12 13 15 16
7 12 6 6 7 7 12 14 12 7 6 6 8 10 11 9 8 8 8 7 5 2 3 4 3 5 4 3 5 6 6 5 4 5 6 8 10 11
8 11 13 13 13 15 16 14 8 5 9 8 8 7 8 8 8 8 7 5 6 5 6 2 2 4 2 4 4 4 3 2 1 1 1 2 4 5
4 11 16 17 13 12 12 12 7 6 6 9 9 10 13 14 14 14 10 7 5 4 5 1 1 3 2 2 5 3 3 3 2 3 3 4 5 5
5 9 13 15 13 13 14 15 9 8 8 7 8 10 11 9 8 8 8 10 7 3 2 2 2 2 1 2 3 1 2 3 4 6 6 6 6 8
8 8 11 11 14 14 16 19 14 11 10 11 12 13 12 5 6 5 5 6 10 4 5 6 5 4 2 5 3 4 5 5 6 6 7 11 11 11
9 13 14 11 10 14 16 18 14 11 11 12 7 6 10 11 10 11 8 9 13 13 10 10 10 10 11 9 6 6 8 8 8 8 10 10 12 16
9 11 12 12 13 16 15 11 8 8 4 3 4 8 7 8 8 9 8 12 16 15 9 12 13 14 14 16 14 9 6 6 8 8 8 10 13 16
10 11 9 8 10 7 7 8 7 6 5 6 6 6 5 4 5 8 15 13 8 5 3 3 5 6 9 12 13 15 14 11 8 6 6 10 14 17
11 14 15 14 9 7 8 9 8 5 3 7 8 10 14 9 12 15 11 11 13 8 7 9 5 3 6 4 7 6 9 7 7 12 14 16 17 19
16 19 19 18 15 10 9 11 10 11 13 10 9 10 13 14 13 11 13 13 14 11 10 8 6 6 5 5 6 6 5 7 9 13 15 19 17 15
22 21 20 19 18 16 13 12 11 11 13 14 15 15 14 13 14 14 15 14 15 13 12 10 7 11 10 10 10 12 10 14 14 15 19 14 15 11
21 21 23 22 19 15 14 13 14 16 17 16 13 16 18 19 18 19 17 14 17 17 17 12 12 15 15 15 13 14 13 14 17 23 14 15 18 16
20 21 22 15 12 15 13 17 19 18 18 17 18 20 20 19 18 16 16 19 17 16 16 15 18 20 21 19 18 18 16 19 16 15 15 15 17 18
21 22 20 20 23 23 21 21 21 21 21 20 23 24 24 24 22 21 20 19 19 19 20 19 19 19 21 22 20 19 19 16 16 19 17 18 18 20
22 24 22 21 21 21 21 20 17 20 26 25 24 24 23 21 22 20 18 23 25 22 22 21 17 19 20 21 22 21 23 20 18 20 19 17 19 25
20 19 21 21 22 23 20 18 20 22 23 23 23 20 24 26 27 29 27 21 19 18 22 24 21 19 21 21 22 25 29 29 27 19 19 20 23 20

GFSNE_850_spd_276.txt.gz
Wind_Speed
7 6 5 6 8 9 6 5 1 2 3 7 7 8 4 2 4 6 7 7 7 9 8 8 10 13 15 17 19 19 21 22 21 22 23 23 26 28
3 4 2 2 4 7 9 7 5 5 6 7 6 8 6 7 6 6 11 14 14 13 14 11 10 7 8 9 12 15 16 19 19 20 22 25 28 27
2 4 4 3 2 2 4 7 8 6 5 5 1 4 9 10 10 3 2 6 11 15 13 14 13 12 8 7 11 14 17 18 19 19 20 19 19 19
1 4 2 3 3 5 7 5 4 4 4 3 4 5 2 3 8 9 8 9 8 10 11 12 12 9 7 8 11 14 15 16 16 17 16 16 15 14
4 5 3 3 5 3 5 8 9 8 9 6 7 8 6 3 3 7 10 10 7 6 11 13 10 9 10 12 11 9 11 12 12 13 13 13 13 13
5 8 8 6 5 5 5 3 5 8 9 7 6 7 4 4 6 6 7 10 10 8 9 7 16 15 13 14 12 8 7 7 8 9 12 14 16 18
5 4 7 6 5 6 5 7 8 6 6 6 8 8 6 6 8 10 11 8 10 12 11 11 8 9 10 10 10 9 9 6 8 10 11 13 14 15
8 4 5 10 9 7 9 12 11 7 5 4 4 5 6 4 4 5 6 7 6 8 6 7 9 7 8 6 5 5 5 5 5 4 3 5 7 9
11 7 5 9 11 8 8 8 9 6 6 5 5 5 4 5 6 7 7 9 7 6 8 5 5 4 5 3 3 3 3 3 3 2 1 0 1 3
10 10 7 5 10 8 8 10 9 6 8 8 7 5 6 7 9 9 9 8 6 6 3 4 5 4 5 4 2 3 3 4 3 1 1 3 4 6
13 11 8 6 9 10 11 13 12 8 8 9 8 9 9 9 7 5 6 8 7 6 5 5 6 6 6 5 3 5 4 2 2 1 1 2 3 6
10 11 10 10 10 10 11 14 14 10 9 11 12 13 12 11 10 5 3 3 6 7 8 8 8 6 5 8 7 8 7 5 4 4 4 5 7 8
5 8 9 10 10 10 13 13 11 9 7 9 9 6 9 11 13 10 10 7 9 11 12 13 13 10 12 11 11 11 10 11 9 7 7 7 8 9
6 8 9 6 6 7 7 7 8 8 8 3 2 2 4 7 5 6 7 8 11 13 11 10 12 12 14 15 16 14 11 12 11 10 10 10 8 8
6 8 10 9 8 6 5 6 6 8 6 6 6 7 5 4 4 4 8 10 8 9 8 6 5 6 7 11 14 16 16 12 9 8 7 7 9 12
11 11 13 12 11 11 9 8 11 11 8 5 4 3 3 6 8 8 9 10 12 11 11 10 10 8 4 4 5 6 7 8 11 9 8 10 11 15
15 18 17 15 13 13 11 12 11 13 13 13 13 12 10 8 10 13 14 13 14 13 11 12 10 12 11 7 7 5 5 7 9 10 8 10 14 11
16 19 19 16 17 16 14 14 13 11 11 11 12 14 17 16 15 15 15 17 17 15 16 12 13 11 16 14 10 9 10 9 14 14 13 15 15 8
15 16 18 17 17 14 12 12 14 15 13 14 14 15 14 13 15 16 17 15 19 16 15 15 18 18 16 18 13 13 12 13 10 13 16 19 12 8
17 18 19 16 14 14 14 15 16 15 17 19 19 21 20 18 18 20 19 17 16 18 19 17 18 18 20 21 22 19 16 13 14 14 13 12 12 12
20 19 19 19 19 19 18 18 19 19 19 21 22 23 22 21 21 20 19 20 21 22 21 21 21 17 18 19 20 21 22 19 16 14 14 17 19 20
14 15 17 18 19 18 19 18 17 17 17 16 19 22 22 23 23 22 21 22 22 22 25 24 21 21 21 23 25 22 20 18 19 19 22 21 23 26
12 12 13 13 13 13 12 15 17 18 18 17 17 21 22 22 23 23 24 26 26 27 28 27 24 24 26 27 25 23 20 21 23 24 27 20 22 20

GFSNE_850_spd_279.txt.gz
Wind_Speed
9 8 8 9 9 10 9 7 7 6 6 5 4 4 6 4 4 4 4 6 7 9 11 8 7 10 16 21 23 22 21 22 22 20 22 24 26 28
5 4 4 4 5 7 11 9 8 9 9 11 10 9 9 10 9 9 7 9 12 16 16 13 12 10 9 11 14 16 18 20 21 21 20 21 24 25
2 2 3 4 4 4 5 10 12 11 12 14 14 13 12 15 15 13 7 6 8 11 14 13 14 14 12 11 9 11 14 18 21 21 21 22 21 22
2 2 2 3 4 6 8 7 7 8 8 9 11 11 10 9 12 12 12 9 11 11 10 11 13 14 16 11 10 11 14 17 19 20 21 22 19 19
4 4 4 5 6 6 7 9 10 11 10 10 11 10 8 11 6 10 10 13 11 10 7 8 13 13 12 11 15 15 13 13 14 16 17 18 17 16
5 4 6 7 8 7 5 5 6 9 11 11 12 12 10 11 8 8 11 13 10 12 9 9 11 17 15 14 17 15 13 10 10 11 12 14 16 16
7 7 6 6 6 6 6 6 6 8 9 10 11 12 11 11 11 13 13 10 11 13 15 13 14 11 16 16 15 15 12 11 9 9 11 13 15 15
7 7 5 6 9 7 9 11 9 7 7 8 8 8 9 9 10 10 11 12 15 17 13 11 13 14 13 12 12 10 8 8 9 8 8 9 10 12
10 11 9 6 3 5 5 7 11 9 7 7 9 8 7 7 8 10 10 10 10 9 9 9 10 10 9 10 9 7 6 7 6 5 5 4 4 4
10 12 10 9 6 5 5 7 9 9 11 12 9 10 9 10 8 9 9 10 10 7 7 6 8 9 9 8 8 7 7 5 5 4 4 4 4 4
10 12 11 11 9 9 8 9 10 10 11 12 12 10 11 12 10 8 7 7 7 7 7 6 8 9 9 10 9 9 9 8 7 6 5 4 4 6
8 9 11 12 12 11 9 10 11 10 8 12 16 16 16 14 11 8 4 4 3 2 4 8 8 8 8 13 12 12 12 11 10 10 8 7 5 6
3 4 6 7 8 8 9 10 10 9 6 7 8 10 8 12 12 11 10 11 8 6 8 10 12 12 11 10 13 13 15 15 15 13 12 11 9 9
3 3 5 6 5 7 8 6 7 10 11 7 4 5 3 6 9 9 10 10 8 10 11 10 11 12 14 17 16 16 17 18 15 16 13 12 11 11
9 9 8 7 8 8 9 10 10 11 11 11 7 6 7 7 4 4 6 8 9 8 8 9 9 8 8 10 15 17 15 15 15 15 14 13 12 11
14 15 14 13 14 13 12 12 11 13 13 12 9 6 5 6 9 10 10 11 13 9 9 9 11 10 11 9 8 9 12 14 17 14 13 12 11 12
17 19 19 18 17 14 15 15 15 17 15 14 15 14 12 11 10 10 12 13 14 14 13 12 11 14 13 14 11 8 8 7 10 13 14 12 9 10
17 18 16 17 18 16 17 18 16 17 17 16 16 16 15 15 17 17 17 17 17 18 16 13 15 14 14 15 17 12 12 12 10 17 17 16 15 11
16 17 18 17 18 18 17 15 14 13 18 20 20 19 18 16 14 14 16 17 18 13 14 14 15 17 19 21 16 18 17 13 14 15 16 17 17 11
19 20 21 20 19 18 18 18 18 20 18 18 20 22 20 20 20 18 16 18 18 17 15 14 18 18 19 19 19 19 20 21 18 16 16 15 16 13
15 16 18 19 19 19 19 20 19 18 18 19 21 20 22 21 22 22 21 19 18 18 19 18 17 17 19 22 23 22 19 18 20 21 18 17 16 18
11 12 11 13 15 15 15 16 15 15 17 19 20 17 16 17 18 18 19 20 19 18 19 20 17 16 21 23 25 25 23 22 22 22 24 23 23 24
12 12 12 12 12 11 13 14 16 16 16 16 17 19 18 17 19 20 18 18 22 25 25 26 23 23 22 22 26 27 27 25 22 24 25 24 25 28

GFSNE_850_spd_285.txt.gz
Wind_Speed
9 10 10 11 10 10 10 9 6 6 7 4 2 4 4 5 5 6 5 6 8 9 11 12 11 9 9 11 14 21 26 26 24 23 24 24 25 27
8 7 6 7 7 7 6 7 8 9 8 6 6 10 11 11 12 11 12 12 13 13 12 10 13 15 13 12 11 14 19 25 28 28 26 24 24 25
3 3 5 6 6 7 7 7 7 8 10 10 11 12 13 14 15 17 17 17 13 12 10 13 14 12 13 13 12 11 12 15 16 18 19 22 23 25
3 3 4 5 5 6 7 8 9 11 9 9 9 7 8 10 11 11 10 8 11 11 10 11 11 10 11 10 12 13 10 9 8 12 16 20 22 22
4 5 6 6 7 7 7 7 7 9 11 12 12 10 9 10 11 10 9 9 9 12 10 9 8 8 11 17 15 13 14 12 13 16 16 19 21 21
5 6 6 7 7 8 8 8 8 8 10 9 10 10 9 10 11 9 7 8 8 11 11 11 11 11 12 11 12 12 13 14 17 18 17 16 17 18
8 8 7 6 5 6 7 9 10 11 10 8 8 8 8 7 8 9 9 10 9 9 10 9 10 12 14 12 14 15 16 18 18 18 16 14 14 14
10 10 9 8 8 6 6 7 8 9 9 8 7 8 7 7 8 8 9 9 8 11 11 10 12 9 15 15 16 17 16 17 16 15 16 16 14 14
9 9 10 10 10 9 8 7 9 10 11 10 9 8 9 7 10 10 10 9 9 11 14 9 11 8 13 14 13 14 13 13 13 12 11 10 10 8
11 10 11 12 11 10 10 10 11 13 13 14 13 12 12 11 13 11 13 14 13 11 11 8 8 8 9 11 10 10 10 10 11 9 9 8 8 7
12 11 10 10 11 11 11 11 13 14 17 17 15 13 14 13 12 13 10 11 9 7 8 7 8 7 9 9 11 12 12 10 9 8 8 7 6 6
9 9 7 8 10 11 11 12 12 12 13 12 12 14 14 14 15 15 13 11 9 7 4 3 6 8 6 11 12 13 13 13 11 10 12 10 9 8
3 4 2 4 6 8 8 8 10 10 9 11 12 13 11 8 9 12 14 16 13 11 10 9 7 7 8 12 14 10 12 16 16 17 16 15 13 11
4 5 4 3 5 5 6 7 10 11 12 14 15 13 9 7 9 10 12 16 20 18 16 13 10 10 9 11 12 11 13 15 16 18 20 19 17 16
9 10 9 9 9 9 9 10 13 14 14 15 14 13 13 13 14 15 14 13 14 16 16 14 14 13 12 12 11 10 11 11 19 20 20 22 21 21
15 15 15 15 15 14 15 15 16 17 16 17 18 17 15 15 14 13 13 12 13 13 16 17 17 17 15 14 14 13 12 9 10 17 21 22 22 22
14 17 18 19 19 18 18 18 19 19 20 20 20 20 19 18 18 19 19 17 16 15 15 14 17 19 20 20 17 15 14 14 11 12 17 16 18 21
13 14 16 16 17 17 18 19 18 18 19 19 18 18 19 19 19 18 21 20 20 20 19 16 16 16 19 22 22 18 16 16 14 14 15 13 15 17
13 14 14 15 16 17 19 20 19 18 18 18 17 17 17 19 22 20 19 19 20 20 20 19 17 16 18 21 17 18 17 16 15 17 17 17 17 16
10 11 12 12 13 14 15 16 16 17 19 18 18 19 20 21 21 22 18 21 22 22 22 20 20 20 21 21 20 18 18 17 18 19 19 18 17 19
7 7 7 9 11 10 11 12 13 13 14 15 14 16 16 17 20 21 23 23 26 24 19 20 19 21 24 20 22 24 21 22 22 21 19 20 21 18
6 5 6 7 6 7 8 8 8 8 10 10 12 15 15 16 16 18 18 19 17 15 19 22 24 22 23 24 25 21 21 19 20 24 26 26 21 22
7 5 6 5 5 5 5 6 8 9 10 10 10 11 13 13 15 17 17 17 17 17 19 22 19 22 25 26 24 23 22 20 17 19 22 27 29 28

GFSNE_850_spd_288.txt.gz
Wind_Speed
7 8 5 6 5 6 6 5 5 8 5 2 2 2 2 2 4 2 4 7 5 6 7 8 9 9 9 9 12 17 24 29 29 30 30 28 28 25
4 6 4 3 3 4 4 4 5 6 8 4 5 6 8 6 8 6 6 10 11 11 10 10 10 12 14 12 10 10 14 20 28 29 27 25 23 23
5 3 2 3 2 3 3 4 4 5 7 8 7 7 9 7 8 9 9 10 13 16 13 10 12 13 12 14 12 13 12 14 17 21 25 27 28 27
4 3 2 1 2 4 3 5 5 6 7 8 8 7 8 7 7 7 7 6 9 13 12 10 11 10 10 11 11 11 12 10 9 10 11 13 17 21
4 4 4 4 4 5 4 4 4 4 6 8 10 9 9 7 7 6 7 6 6 11 11 12 11 8 7 8 14 15 12 14 12 13 12 13 17 21
5 5 6 6 6 5 3 5 4 3 7 6 8 8 8 7 7 6 5 5 7 8 10 11 11 12 12 14 10 9 14 15 13 13 15 17 18 18
8 8 7 8 9 7 3 5 7 5 6 7 7 7 6 5 6 7 7 8 9 8 8 8 9 9 11 13 12 11 13 14 15 16 17 17 16 15
8 8 10 11 10 9 7 7 8 5 4 4 5 7 6 5 6 7 7 7 6 7 7 10 11 12 11 10 17 14 16 18 18 17 16 15 15 15
9 8 7 8 12 7 10 8 8 7 9 9 7 7 8 6 7 7 7 9 9 10 11 10 9 11 10 14 16 14 15 16 15 15 13 11 11 12
9 9 9 10 10 10 8 9 8 8 9 8 10 10 10 9 8 8 10 11 11 10 10 8 6 10 10 13 13 11 11 12 12 11 11 9 8 8
10 9 9 9 13 11 12 10 10 9 11 14 11 11 11 11 12 11 7 10 11 8 8 7 7 9 10 10 14 12 11 13 12 11 11 9 7 7
10 9 8 10 11 10 10 8 9 8 8 8 8 11 12 10 10 12 10 11 10 11 9 5 6 7 8 8 10 13 11 13 13 13 13 12 10 6
8 7 5 4 5 7 9 8 9 11 10 10 8 7 8 8 7 9 9 12 13 12 12 9 9 9 10 13 13 12 11 15 17 17 18 17 14 12
5 7 6 5 4 5 5 7 9 9 9 9 10 9 8 7 7 9 10 12 13 17 16 16 13 11 12 13 14 13 14 14 16 16 18 21 21 18
8 11 10 9 10 11 10 10 11 11 9 10 11 10 10 10 12 13 13 14 16 17 17 22 20 15 14 15 16 15 15 15 16 17 18 21 19 17
15 16 16 16 15 16 15 15 14 10 11 12 13 13 13 14 13 12 13 12 14 14 16 17 18 19 17 18 17 18 17 17 13 17 17 19 19 20
15 16 17 17 18 17 14 11 12 11 11 12 13 14 13 13 14 13 15 16 17 16 16 16 19 17 17 18 20 19 18 18 17 17 17 17 19 20
12 14 14 11 11 13 15 16 17 16 17 14 14 13 13 14 14 14 16 18 20 20 20 18 18 16 15 18 20 19 20 20 18 17 18 17 17 18
9 12 12 13 14 14 14 15 16 18 20 20 20 18 17 16 13 15 16 18 22 24 24 22 21 23 24 24 19 17 17 16 17 18 18 19 18 17
1 4 6 8 8 9 10 11 11 11 12 13 13 14 16 16 17 17 19 20 25 19 20 23 21 24 24 26 23 19 14 15 17 19 20 20 20 20
4 3 4 4 5 7 7 6 7 7 8 7 8 10 10 10 11 11 12 17 20 22 26 24 26 26 22 21 19 21 18 13 20 22 22 21 22 23
3 4 4 5 5 5 6 6 6 7 8 8 9 10 10 12 13 14 14 15 19 20 21 23 22 22 23 34 26 21 25 31 29 20 24 25 24 25
7 7 7 8 7 7 8 9 10 11 12 12 13 14 14 15 15 15 15 15 16 16 17 18 20 19 21 20 20 17 20 23 26 23 28 19 24 28

GFSNE_850_spd_291.txt.gz
Wind_Speed
5 5 3 5 5 4 4 4 5 7 5 4 1 5 4 5 4 3 9 7 6 4 4 4 5 7 9 11 14 17 20 30 31 34 34 35 34 26
2 11 4 5 3 3 3 3 4 6 8 5 3 3 5 7 7 6 8 11 10 10 9 9 9 9 10 13 14 12 14 18 25 30 32 33 30 33
6 4 4 8 2 3 3 3 3 5 7 7 6 7 8 4 9 8 10 12 16 15 14 11 12 11 12 15 17 15 14 13 16 21 28 31 30 29
6 7 4 2 3 5 1 7 6 6 5 7 8 9 7 7 8 9 6 8 7 10 8 10 13 12 10 11 12 14 14 16 14 15 17 19 22 23
8 7 6 6 4 7 7 4 3 4 5 7 8 7 8 9 7 9 7 8 10 14 15 15 14 12 8 6 8 14 13 13 15 13 11 12 14 16
8 7 7 7 6 6 4 5 4 3 4 7 7 7 7 6 7 7 7 8 7 8 6 9 13 12 11 13 14 12 12 15 16 16 14 15 16 17
9 8 7 11 11 8 5 6 11 6 5 5 7 7 6 5 4 6 6 8 10 11 9 10 10 9 11 12 13 14 12 13 16 18 17 17 18 19
10 9 10 15 15 12 10 9 12 9 6 4 4 7 8 5 5 8 6 8 6 4 6 11 12 13 11 15 13 13 14 15 17 18 18 19 19 18
11 10 9 10 16 9 10 9 11 9 8 9 7 6 9 7 10 9 8 10 8 11 10 11 10 13 11 18 18 18 22 20 17 19 19 18 18 17
11 8 9 9 8 10 9 9 7 11 11 6 7 12 10 12 11 9 12 11 12 10 9 9 8 11 11 14 17 20 16 15 14 15 15 14 14 14
15 10 7 10 13 17 15 11 9 10 11 14 16 12 11 12 13 13 10 11 12 9 10 9 7 9 10 11 13 13 13 15 14 13 13 13 13 12
11 7 6 9 15 16 11 6 9 10 9 12 13 12 13 13 9 10 10 10 11 11 10 7 7 7 9 9 14 10 15 17 16 16 16 15 14 12
10 5 3 4 9 11 13 10 9 13 11 14 11 10 8 10 11 13 11 8 10 12 12 6 9 10 11 13 11 11 12 15 16 16 17 18 17 16
12 12 9 3 6 10 10 9 7 9 9 10 12 11 10 9 8 9 11 13 14 17 18 16 11 11 13 14 14 12 13 15 13 15 15 19 22 21
5 5 6 2 10 14 15 13 10 10 8 9 12 13 12 11 14 15 15 17 16 11 12 15 20 16 17 17 16 15 16 15 15 16 17 20 21 20
5 3 7 13 19 19 18 16 15 11 8 13 13 14 13 14 14 14 15 15 15 15 16 17 18 15 14 17 19 21 18 19 18 16 17 18 19 22
11 13 14 17 18 19 18 15 10 12 15 14 15 13 14 13 14 14 15 16 18 18 17 17 21 22 19 17 17 19 20 21 19 19 19 20 20 20
14 16 17 17 16 16 15 15 17 18 21 21 21 21 19 18 18 17 15 17 16 17 20 19 21 21 23 22 19 19 18 19 20 20 20 21 20 18
16 15 12 13 14 15 14 16 18 19 20 20 19 17 16 19 22 19 18 18 18 20 19 18 23 26 21 23 22 21 28 23 18 18 20 21 21 19
7 7 9 9 10 10 10 11 11 11 11 10 11 11 12 12 12 13 14 14 14 16 17 19 19 23 20 22 25 29 19 24 22 21 19 17 19 22
6 5 6 6 7 7 8 8 9 8 10 10 8 10 11 12 13 14 14 17 19 17 17 17 18 23 27 29 29 30 29 30 25 14 20 22 18 15
6 6 6 7 7 7 7 8 8 9 10 11 12 13 13 13 15 16 16 17 18 18 18 18 20 23 23 25 26 24 23 28 32 37 32 22 24 17
8 8 9 9 9 9 10 11 12 13 13 14 15 16 16 16 17 18 19 19 19 19 19 20 18 15 21 20 20 24 25 24 25 29 29 24 27 28